sat.trackr.live / text

‹ back to catalog

IONOSFERA-M 3

NORAD 64876 · 2025-155A

PAYLOAD ACTIVE UNKNOWN

§ Identity

Operator
Country
CIS
Launch date
2025-07-25
Launch site
VOSTO
Launch vehicle
Mass (kg)
RCS (m²)

Purposes: earth_obs

External: N2YO · Heavens-Above · Gunter

§ Orbital elements

Epoch: 2026-05-25T03:47:55.430880Z

Period
101.30 min
Inclination
98.6014°
Eccentricity
0.0000443
Mean motion
14.21481935 rev/d
Perigee alt
820.0 km
Apogee alt
820.7 km
Semi-major
7,198.5 km
B*
4.3448e-5
RAAN
107.6451°
Arg perigee
353.1363°
Mean anomaly
6.9808°
Rev number
4,313

§ Raw data

IONOSFERA-M 31 64876U 25155A   26145.15828045  .00000052  00000+0  43448-4 0  99932 64876  98.6014 107.6451 0000443 353.1363   6.9808 14.21481935 43130

JSON: /api/v1/satellites/64876 · /tle

For live sub-satellite position, see the globe view (requires WebGL).

§ Visibility from observer

Set your observer location to see the next 7 days of passes ≥ 10°. The values pass through the URL so the page stays shareable.

No JS? Fill the form by hand. The geolocation button needs JavaScript.

§ Radio — SatNOGS DB

ModeDescriptionDownlinkUplink
FM Telemetry 399.919 MHz

1 transmitter · refreshed weekly from db.satnogs.org